Location: Pl�tzky
(52.0521°N, 11.8020°E)
Time: 02:44:25
(UTC+00:00)

COSMO-SKYMED 1 - Pass Details

Date: 22 November 2019
Orbit: 621 x 623 km, 97.9° (Epoch: 14 December)

Event Time Altitude Azimuth Distance (km) Brightness Sun altitude
Exits shadow 16:51:49 19° 41° (NE) 1,506 4.1 -14.7°
Maximum altitude 16:54:23 35° 96° (E) 1,019 3.2 -15.1°
Drops below altitude 10° 16:58:21 10° 163° (SSE) 1,989 5.1 -15.7°
Sets 17:00:41 0° 172° (S) 2,890 6.1 -16.0°
